Home   Weather   Venice   Past weeks

Flag for Italy Past Weather in Venice, Italy — Yesterday and Last 2 Weeks

Now
43 °F

Fog.


Feels Like: 43 °F
Forecast: 41 / 50 °F
Wind: 2 mph from North

Location: Treviso / S. Angelo

Current Time: Feb 21, 2017 at 11:07:17 pm

Latest Report: Feb 21, 2017 at 10:20 pm


Visibility: 1 mi

Pressure: 30.09 "Hg

Humidity: 100%

Dew Point: 43 °F

Location of VeniceLocation

Past Weather in Venice — Graph

°F

Venice Temperature Yesterday

Maximum temperature yesterday: 54 °F (at 1:20 pm)
Minimum temperature yesterday: 37 °F (at 11:20 pm)
Average temperature yesterday: 45 °F

High & Low Weather Summary for the Past Weeks

 TemperatureHumidityPressure
High61 °F (Feb 16, 1:50 pm)100% (Feb 12, 2:20 am)30.60 "Hg (Feb 12, 2:20 am)
Low30 °F (Feb 15, 7:20 am)34% (Feb 16, 1:50 pm)29.80 "Hg (Feb 6, 9:20 pm)
Average44 °F77%30.26 "Hg
* Reported Feb 6 9:20 pm — Feb 21 9:50 pm, Venice, Weather by CustomWeather, © 2017

Note: Actual official high and low records may vary slightly from our data, if they occured in-between our weather recording intervals... More about our weather records

Advertising

Venice Weather History for the Previous 24 Hours

Scroll right to see more
 ConditionsComfort  
Time TempWeatherWind HumidityBarometerVisibility
9:50 pm
Tue, Feb 21
43 °FFog.1 mph100%30.09 "Hg1 mi
9:20 pm43 °FFog.1 mph100%30.09 "Hg1 mi
8:50 pm43 °FFog.2 mph100%30.09 "Hg1 mi
8:20 pm43 °FFog.1 mph100%30.09 "Hg1 mi
7:50 pm43 °FFog.2 mph100%30.09 "Hg1 mi
7:20 pm43 °FFog.5 mph100%30.09 "Hg1 mi
6:50 pm43 °FFog.2 mph100%30.07 "Hg1 mi
6:20 pm43 °FFog.3 mph100%30.07 "Hg1 mi
5:50 pm43 °FFog.3 mph100%30.07 "Hg1 mi
5:20 pm45 °FFog.5 mph93%30.07 "Hg1 mi
4:50 pm43 °FFog.5 mph100%30.07 "Hg0 mi
3:50 pm43 °FFog.5 mph100%30.04 "Hg0 mi
3:20 pm45 °FFog.5 mph93%30.04 "Hg1 mi
2:50 pm43 °FFog.5 mph100%30.07 "Hg1 mi
2:20 pm43 °FFog.5 mph100%30.07 "Hg0 mi
1:50 pm43 °FFog.5 mph100%30.07 "Hg0 mi
1:20 pm43 °FFog.3 mph100%30.09 "Hg0 mi
12:50 pm43 °FFog.3 mph100%30.09 "Hg0 mi
12:20 pm43 °FFog.5 mph100%30.09 "Hg0 mi
11:50 am43 °FFog.5 mph100%30.12 "Hg0 mi
11:20 am43 °FFog.3 mph100%30.12 "Hg0 mi
10:50 am43 °FFog.5 mph100%30.12 "Hg0 mi
10:20 am41 °FFog.5 mph100%30.12 "Hg0 mi
9:50 am41 °FFog.5 mph100%30.12 "Hg0 mi
9:20 am41 °FFog.3 mph100%30.12 "Hg0 mi
8:50 am41 °FFog.6 mph93%30.12 "Hg0 mi
8:20 am39 °FFog.5 mph100%30.12 "Hg0 mi
7:50 am39 °FFog.3 mph100%30.12 "Hg0 mi
7:20 am39 °FFog.3 mph100%30.12 "Hg0 mi
6:50 am39 °FFog.3 mph100%30.12 "Hg0 mi
6:20 am39 °FFog.2 mph100%30.09 "Hg0 mi
5:50 am39 °FFog.2 mph93%30.12 "Hg1 mi
5:20 am39 °FFog.1 mph93%30.12 "Hg1 mi
4:50 am39 °FFog.3 mph100%30.12 "Hg1 mi
4:20 am39 °FFog.1 mph100%30.12 "Hg1 mi
3:50 am39 °FFog.2 mph100%30.12 "Hg1 mi
3:20 am39 °FFog.2 mph100%30.12 "Hg1 mi
2:50 am39 °FFog.1 mph100%30.15 "Hg1 mi
2:20 am39 °FFog.No wind100%30.15 "Hg1 mi
1:50 am39 °FFog.2 mph100%30.15 "Hg1 mi
1:20 am39 °FFog.1 mph100%30.15 "Hg1 mi
12:50 am39 °FFog.1 mph100%30.18 "Hg0 mi
12:20 am39 °FOvercast.2 mph100%30.18 "Hg1 mi
11:50 pm
Mon, Feb 20
39 °FFog.1 mph93%30.18 "Hg1 mi
11:20 pm37 °FPassing clouds.1 mph100%30.18 "Hg0 mi
Weather by CustomWeather, © 2017

See weather overviewHow to use our weather pages